Location: Leuk
(46.3174°N, 7.6341°E)
Time: 18:32:36
(UTC+00:00)

Cosmos 2344 - Pass Details

Date: 09 March 2021
Orbit: 1241 x 3001 km, 63.3° (Epoch: 14 April)

Event Time Altitude Azimuth Distance (km) Brightness Sun altitude
Exits shadow 03:46:40 38° 243° (WSW) 1,801 3.8 -22.5°
Maximum altitude 03:49:44 69° 314° (NW) 1,340 3.5 -22.0°
Drops below altitude 10° 03:57:46 10° 38° (NE) 3,501 6.6 -20.7°
Sets 04:00:56 0° 41° (NE) 4,642 7.5 -20.1°
